Wind_Speed
38 39 40 41 42 41 41 39 38 38 38 38 38 38 39 40 40 41 44 46 45 46 47 48 50 49 48 53 55 54 55 55 55 55 55 54 55 56 57 60 63 64 66 67 66 65 66 67 68 69 71 72 73 74 74 75 78 80 81 82 82 81 81 80 80 79 79 81 83 84 86 87 90 94 96 99 96 88 81 77 74 70 69 67 69 74
39 40 40 41 42 42 42 41 41 40 40 40 41 41 41 43 43 44 47 49 48 50 51 51 53 50 49 54 55 54 55 55 55 55 54 55 56 56 59 63 65 66 68 69 67 66 67 68 69 70 72 73 74 74 75 77 79 81 82 83 82 82 81 80 81 82 84 85 86 86 88 91 94 97 96 93 86 76 67 66 66 66 67 66 69 74
39 41 42 42 43 43 43 43 43 43 42 42 43 42 43 45 46 46 49 51 51 52 53 54 55 53 52 55 55 56 56 56 57 57 56 57 57 58 62 65 66 68 70 69 67 67 67 69 70 72 73 74 75 75 77 79 81 82 83 83 83 82 82 83 84 86 87 87 87 89 92 94 97 98 92 81 72 66 60 60 62 63 67 68 70 75
41 43 43 43 44 44 44 44 44 44 44 44 44 44 45 47 49 49 51 53 54 54 55 56 57 56 55 56 56 58 58 58 60 59 60 61 59 61 65 67 68 70 70 68 67 67 68 70 72 73 73 74 75 76 78 80 81 81 82 82 82 82 83 86 87 88 88 88 91 93 95 97 96 91 82 69 60 59 58 58 60 61 65 69 71 75
43 44 45 45 45 45 46 46 46 46 46 46 46 46 46 48 49 51 52 54 54 54 55 57 58 57 57 58 59 59 59 60 61 62 63 62 61 64 67 67 68 69 69 68 68 68 69 71 72 74 74 75 76 78 80 80 80 80 80 79 79 81 85 88 89 90 90 90 93 96 98 96 90 79 69 59 52 52 55 57 58 57 63 70 71 72
45 46 47 47 48 48 48 48 48 49 49 49 48 47 48 49 50 52 52 54 55 54 56 58 59 59 60 60 61 61 61 62 62 63 64 63 63 65 66 67 68 68 68 68 69 69 70 71 72 74 75 77 78 80 81 81 80 79 79 78 79 82 85 87 89 91 93 95 95 98 98 92 81 69 59 51 46 46 48 52 56 55 59 70 71 69
46 47 48 50 51 52 52 52 50 50 51 51 51 50 51 52 53 53 53 55 55 55 56 57 58 61 62 62 62 62 62 63 63 65 65 64 65 66 66 67 68 68 68 69 70 71 71 72 73 74 76 78 80 81 82 81 80 80 79 78 80 82 83 86 90 94 97 98 98 97 93 85 74 62 52 46 42 41 43 46 51 52 56 69 72 68
49 49 50 52 53 55 56 55 53 52 52 52 52 52 53 53 54 54 54 55 55 56 57 55 55 62 64 62 62 64 64 64 65 66 66 65 66 67 67 67 68 68 69 70 71 71 72 73 75 76 78 79 81 81 81 80 80 79 78 78 80 81 84 88 93 97 99 100 100 95 85 77 68 57 48 43 40 39 41 42 45 49 53 65 74 70
52 52 52 54 55 57 58 56 55 54 53 53 53 53 53 54 54 54 54 55 55 58 58 54 56 62 65 63 64 65 65 64 65 67 67 67 68 67 67 68 68 69 71 72 72 71 73 75 77 78 80 81 82 82 81 80 79 77 76 78 80 82 85 91 95 98 100 101 99 91 79 71 63 54 47 42 40 40 42 41 40 45 49 60 74 73
54 53 54 56 57 59 59 58 56 55 54 53 53 54 54 55 55 54 56 56 57 60 58 55 58 62 66 66 64 65 65 64 66 68 69 69 68 68 68 69 69 71 72 72 72 73 75 76 78 80 81 81 82 82 81 79 77 76 77 79 81 83 87 93 97 99 100 98 93 84 74 66 59 53 48 43 39 40 42 40 37 40 45 54 71 76
54 55 55 56 58 60 60 59 58 56 55 54 55 56 56 57 56 56 57 57 59 61 59 59 61 63 67 67 64 66 66 66 67 68 69 68 68 68 69 69 71 72 72 72 72 74 76 77 79 81 81 82 82 82 81 79 77 77 79 81 82 85 90 94 97 99 97 91 84 77 70 63 56 52 50 44 40 41 41 40 37 36 41 48 64 77
57 56 57 58 60 61 61 61 60 59 58 57 58 58 58 58 57 58 60 60 62 63 62 64 64 65 69 67 66 67 68 68 68 67 67 67 67 68 69 70 72 72 72 73 74 75 76 78 80 81 82 82 81 80 79 77 77 78 80 83 85 87 91 95 97 98 92 81 73 70 68 61 55 52 50 45 42 42 42 41 37 35 37 43 56 73
61 60 60 61 63 63 63 63 62 63 63 62 62 61 61 60 59 61 62 63 65 66 66 67 67 68 69 66 66 68 67 67 67 67 67 66 67 68 70 72 72 72 73 74 75 76 77 78 80 81 81 81 80 78 77 76 77 79 81 83 86 89 92 95 97 94 83 72 65 64 65 61 54 51 51 48 45 44 43 42 38 35 35 38 49 66
64 64 63 65 66 66 66 66 66 67 67 67 66 64 62 60 60 62 64 65 67 67 68 68 68 70 68 67 68 68 66 65 65 65 65 65 68 70 72 72 71 73 75 75 76 76 77 78 80 81 81 80 78 76 75 75 78 80 82 84 87 90 93 95 97 88 73 65 62 60 62 61 55 51 51 50 48 47 45 43 39 35 34 37 44 59
66 66 67 68 69 69 69 69 69 69 69 69 68 66 64 61 61 64 65 68 68 68 68 68 68 68 67 69 71 68 66 66 64 64 64 67 71 72 73 72 72 74 75 74 75 76 77 78 80 81 80 78 76 75 74 75 79 82 83 85 88 92 94 96 94 82 67 62 62 59 58 59 57 53 52 50 49 48 46 44 41 36 34 36 42 54
68 68 69 71 72 72 71 71 70 70 70 69 67 66 64 62 63 65 67 69 69 70 69 68 69 69 68 70 71 69 67 66 64 65 66 70 72 72 72 72 72 74 74 74 75 76 77 78 79 79 78 77 75 73 74 77 80 82 83 86 89 91 94 96 91 76 64 62 60 56 55 56 57 57 55 51 48 48 48 47 45 40 36 36 39 50
69 70 72 73 74 74 73 72 71 71 70 68 66 64 63 63 64 65 68 70 70 71 71 70 71 71 71 71 70 69 67 64 65 67 69 71 71 72 73 72 72 73 73 74 75 76 77 77 77 77 76 75 74 73 75 78 80 82 85 89 91 91 92 95 89 71 62 62 59 56 58 57 57 58 57 54 49 46 48 50 48 43 39 35 35 45
70 72 74 74 75 75 73 72 71 71 70 67 63 62 63 64 64 66 69 70 69 72 74 74 73 73 73 72 70 68 64 63 65 68 70 71 71 71 71 71 71 72 73 74 75 76 76 76 76 75 74 74 73 74 76 79 80 82 86 90 93 94 94 94 86 69 62 63 60 59 61 60 58 59 58 56 51 45 46 51 49 44 39 34 33 39
71 73 74 75 75 74 73 72 72 71 69 64 61 61 63 64 64 65 69 70 70 72 75 75 74 75 74 71 69 64 60 63 67 69 71 71 70 70 69 69 70 72 73 74 75 75 75 74 75 74 73 73 72 74 77 80 81 83 87 91 93 94 94 91 80 67 62 63 62 63 64 62 60 59 57 55 53 47 45 49 48 45 42 37 34 36
71 75 76 76 75 74 73 73 72 69 66 63 61 62 64 64 65 66 69 71 71 71 74 75 76 77 72 68 65 60 58 63 68 70 72 71 69 68 67 68 70 71 73 73 74 74 73 73 74 73 73 73 72 75 78 79 81 84 87 90 92 92 93 90 77 65 62 63 66 66 64 62 61 58 55 53 52 48 45 46 47 47 46 41 36 35
72 75 77 76 75 74 74 74 71 67 63 61 63 66 66 66 67 69 71 72 70 70 73 76 78 78 73 67 61 56 58 63 67 70 71 70 68 67 67 68 70 71 72 72 72 72 71 72 73 73 72 72 72 74 77 79 81 85 87 90 92 92 93 89 75 63 62 66 68 66 64 64 61 56 52 49 48 48 45 44 46 48 47 43 37 35
73 76 78 77 75 75 75 73 69 64 62 63 66 68 69 68 68 70 72 70 68 70 72 74 79 79 73 64 58 57 60 64 67 70 70 68 66 65 67 69 70 71 71 71 71 70 71 72 72 73 71 71 72 74 76 78 81 85 88 90 92 93 94 89 74 63 64 68 69 65 64 65 61 56 51 46 45 46 46 45 45 47 48 43 38 36
75 78 79 76 75 75 75 72 66 63 64 67 69 70 70 70 69 70 72 70 68 72 73 73 79 79 70 60 58 59 62 64 68 70 69 67 63 63 66 68 69 70 69 69 70 70 71 72 72 72 71 71 72 74 76 78 81 85 88 91 93 93 93 85 71 64 65 70 69 65 65 64 60 56 51 44 43 45 46 46 45 45 46 43 39 37
77 79 80 78 76 75 74 70 65 66 68 70 72 72 71 71 71 72 72 70 71 73 72 73 78 76 68 61 59 60 63 66 68 69 68 66 62 63 67 67 68 67 66 67 69 70 71 71 72 72 72 72 73 75 76 78 82 85 88 92 93 92 92 83 69 63 66 69 68 65 65 64 58 55 51 42 39 44 46 46 46 45 44 42 39 38
78 80 79 77 76 76 73 68 67 69 71 72 72 72 71 71 72 71 69 71 75 72 69 74 77 70 65 63 61 61 65 66 67 69 68 64 63 65 67 66 66 65 65 67 69 70 70 71 72 72 71 72 74 76 77 79 82 86 88 91 93 93 92 84 69 64 66 69 68 65 65 63 57 53 51 43 36 42 47 46 47 47 44 42 40 39
79 80 76 74 75 75 71 69 70 71 72 73 72 71 70 70 69 68 68 72 75 68 65 73 74 66 62 63 63 63 66 68 68 69 67 63 64 66 66 65 64 63 65 68 68 69 70 70 71 71 71 72 74 76 78 80 83 86 88 91 93 93 92 83 69 63 66 69 68 65 63 61 55 50 50 45 36 38 46 48 48 48 46 44 41 40
80 78 74 73 74 72 70 71 73 73 74 74 73 72 71 69 67 67 69 71 69 65 68 70 68 66 62 60 63 65 67 68 68 67 64 63 65 66 65 64 63 65 67 68 69 69 70 70 70 70 71 72 74 76 78 81 84 87 89 92 92 92 92 84 69 62 64 68 68 65 61 59 54 49 47 45 39 35 43 49 49 49 47 46 44 42
80 77 73 74 74 71 70 73 73 74 75 75 76 76 72 67 66 68 69 66 62 66 71 65 62 67 64 60 64 67 67 68 67 64 63 63 64 64 63 63 64 66 68 69 70 70 70 70 69 70 70 72 74 76 77 80 84 87 89 92 93 92 92 84 70 62 64 67 68 65 60 57 53 48 47 45 41 36 39 47 51 50 48 48 46 44
80 77 74 75 75 71 72 74 74 74 76 76 77 76 72 68 67 66 64 61 60 67 70 62 60 66 64 62 65 67 68 67 64 63 62 62 62 61 61 63 65 67 68 69 70 70 69 69 70 70 71 72 74 76 77 80 83 86 89 92 93 93 91 85 71 62 63 67 69 68 60 54 52 48 47 46 42 38 37 43 51 52 50 49 49 47
80 78 75 75 75 73 73 74 74 75 76 76 76 76 72 66 63 61 61 60 62 66 65 62 63 62 60 63 67 66 66 65 63 62 61 60 60 60 61 64 65 67 68 69 70 70 69 69 70 70 71 73 75 76 78 80 83 86 89 91 92 92 91 85 72 63 64 68 70 69 60 53 52 50 48 48 45 41 37 39 49 54 54 52 51 50
79 76 74 75 75 74 73 73 74 74 74 76 78 76 68 61 58 61 61 59 61 62 61 62 64 60 59 65 67 63 63 64 62 60 59 58 59 60 62 64 65 67 68 69 70 70 69 69 69 69 71 73 75 76 78 81 83 86 89 91 92 91 90 85 72 63 64 67 69 67 59 53 53 52 50 49 47 44 39 37 44 53 57 55 54 53
78 76 74 73 73 71 71 72 73 72 74 79 77 69 61 58 58 58 56 56 60 62 61 62 61 60 61 64 63 61 62 63 61 59 57 56 58 60 63 65 66 67 68 69 70 69 68 68 68 70 71 73 75 77 79 81 83 86 89 90 91 90 89 84 73 63 63 67 68 66 58 52 54 54 52 50 48 45 42 38 40 50 57 59 57 55
78 75 71 70 71 71 70 71 72 72 76 79 72 63 58 56 55 52 52 55 58 60 61 60 59 60 62 61 60 61 62 61 59 57 56 56 57 61 64 66 67 68 68 68 69 68 68 68 69 70 72 74 76 77 79 82 84 87 89 90 90 90 87 83 74 65 64 67 69 65 57 51 53 55 53 51 47 45 43 39 37 45 55 59 60 58
73 69 68 69 71 72 71 71 72 74 77 75 68 60 55 50 49 51 53 54 56 58 60 59 58 60 60 59 60 62 61 59 57 55 54 56 58 60 63 65 67 68 68 68 67 67 68 68 69 70 72 74 76 78 80 83 84 87 88 89 89 88 85 81 73 65 64 66 67 64 56 50 52 54 54 50 46 43 42 40 36 41 50 56 60 60
67 67 69 71 71 72 72 72 73 75 75 71 63 54 47 46 49 52 51 51 53 57 58 57 57 57 58 59 61 61 59 58 55 53 54 57 59 61 63 65 66 67 68 68 67 67 67 68 69 70 72 74 76 78 80 82 84 85 86 87 88 86 83 79 72 65 64 66 67 65 57 50 50 53 54 50 46 42 40 38 34 36 44 50 57 60
67 68 70 72 72 72 73 72 74 75 70 63 55 48 45 47 50 51 49 48 52 57 57 55 54 55 58 60 60 59 58 55 53 53 55 57 59 61 63 64 65 67 67 68 67 66 66 67 69 71 72 74 76 78 80 83 84 85 85 85 86 84 80 76 71 65 63 65 66 63 56 50 48 51 54 50 44 41 37 35 32 32 38 43 51 58
68 69 70 70 71 72 73 73 73 70 63 54 49 46 46 47 48 50 50 47 49 53 53 53 55 57 58 58 57 57 56 53 53 54 55 57 59 61 63 64 65 67 67 67 66 65 66 67 69 72 73 74 76 79 81 83 83 84 84 84 84 82 78 74 69 65 63 63 65 63 56 49 47 50 52 49 43 40 36 32 29 27 32 37 44 53
69 69 68 69 70 72 72 69 66 63 58 51 46 44 45 46 48 51 51 47 45 48 52 55 59 58 56 56 56 55 54 52 54 56 56 57 59 61 62 64 65 66 66 65 65 64 65 67 68 72 74 75 77 79 81 82 83 83 83 83 82 80 75 70 67 65 62 61 64 63 54 46 45 48 51 48 41 37 34 31 27 23 24 31 37 46
68 67 66 68 70 69 67 64 60 57 54 48 44 43 45 47 48 51 51 46 43 48 55 58 58 55 54 55 55 54 53 53 54 56 57 58 59 60 62 63 65 65 65 65 64 64 65 66 68 71 73 75 77 79 80 81 82 82 82 81 80 77 72 67 65 64 61 60 62 62 52 44 42 45 49 47 39 34 32 29 26 21 18 23 31 40
65 65 65 66 67 65 62 58 54 52 50 46 43 43 46 48 47 50 51 48 47 51 55 55 54 53 54 56 55 53 53 54 54 56 58 58 59 60 61 63 64 64 63 63 63 63 64 67 69 72 74 76 77 78 80 80 80 81 80 79 78 74 68 65 63 63 61 59 61 60 50 41 40 42 46 46 39 32 29 27 24 21 17 15 23 33
63 63 64 64 63 58 54 53 51 49 47 44 43 45 47 47 48 49 51 51 52 54 53 52 53 54 54 54 53 53 53 54 54 55 57 58 58 60 62 62 62 62 62 62 62 62 63 66 69 72 75 77 78 78 79 79 79 80 79 77 75 71 65 62 61 62 61 59 59 57 48 38 37 38 41 44 39 32 28 24 22 20 17 14 14 23
63 63 63 61 56 51 50 52 53 49 44 44 48 49 46 47 50 50 50 51 54 55 54 53 53 54 53 53 52 53 54 54 54 54 56 57 58 60 61 61 61 61 60 61 61 62 63 65 67 71 74 76 78 78 78 79 79 79 78 75 73 68 61 59 60 61 61 59 58 55 45 36 34 34 37 39 37 32 28 23 20 18 17 16 14 17
61 62 61 54 49 50 51 52 52 50 47 48 50 48 46 48 51 51 51 54 56 56 55 54 54 53 53 52 52 54 54 54 54 54 55 57 58 59 60 60 59 59 59 60 61 62 63 65 67 70 73 76 77 77 77 77 77 77 76 73 70 64 58 56 58 60 59 58 57 52 43 34 31 30 32 35 34 30 27 23 19 18 18 19 20 21
60 60 58 51 48 51 52 52 52 51 50 49 48 47 49 51 52 53 55 58 58 57 56 56 55 53 52 52 54 54 53 53 53 53 55 57 57 58 59 59 58 58 58 59 61 62 63 65 67 69 72 75 76 77 77 76 76 75 74 71 67 60 54 53 56 58 58 57 55 50 41 32 29 27 27 30 29 25 23 20 17 16 18 21 25 27
61 58 56 52 51 51 53 53 53 51 50 50 49 50 52 54 55 57 60 60 59 58 57 56 54 53 53 53 54 53 53 52 53 53 55 56 56 57 57 57 57 58 58 59 61 62 64 65 67 69 71 73 75 76 76 75 75 74 72 69 65 57 50 51 54 55 56 56 54 50 40 31 27 26 24 24 24 21 18 15 12 11 12 17 23 27
60 59 56 53 53 54 55 54 54 55 55 53 52 54 57 59 60 60 61 60 59 58 57 56 54 53 54 54 53 53 52 52 53 54 55 55 55 55 56 56 56 57 58 59 60 62 64 65 67 69 70 72 73 74 74 74 73 72 70 67 62 53 48 49 52 53 55 54 52 49 40 29 25 24 22 20 19 16 14 11 8 6 5 8 12 18
59 59 57 55 56 59 59 57 58 59 57 55 57 61 63 62 60 59 60 60 58 57 56 55 54 54 54 53 52 52 51 52 53 54 53 53 54 54 54 55 55 56 57 59 60 62 64 65 67 68 70 71 72 72 73 72 71 70 68 65 59 50 45 46 49 52 53 53 51 48 38 27 21 21 21 18 15 13 11 9 7 5 4 5 7 10
56 57 58 58 62 64 64 63 62 59 58 61 65 65 62 60 59 59 58 57 57 56 56 55 55 54 53 52 51 51 51 52 52 53 52 52 52 53 53 54 54 55 57 58 60 63 64 65 67 68 70 70 71 71 71 70 69 68 66 62 56 47 41 43 47 50 52 53 51 47 38 26 19 18 18 17 15 11 9 8 7 6 6 7 8 8
58 60 60 63 67 67 65 64 62 61 65 69 68 63 59 58 58 58 57 56 56 56 56 55 54 53 52 51 51 51 51 51 51 51 51 51 51 52 52 53 53 54 56 58 60 62 64 65 67 68 69 70 70 70 69 68 67 66 64 60 52 43 38 39 44 47 50 51 51 48 39 26 18 16 16 15 15 11 8 6 6 6 5 6 8 10
62 64 64 66 68 67 65 64 65 67 69 69 66 62 59 57 56 57 57 56 56 55 54 54 53 52 51 50 50 50 50 50 50 50 50 50 50 51 51 51 53 54 56 58 60 62 64 66 67 68 69 69 68 68 67 66 65 64 62 58 49 40 36 37 41 44 47 49 50 48 40 26 17 16 14 13 13 11 7 4 5 6 6 6 7 10
65 67 67 68 68 68 66 66 68 70 69 67 63 60 58 56 56 56 55 55 54 53 52 52 51 51 50 49 48 48 48 48 48 48 48 49 49 50 50 51 52 54 55 57 59 62 64 66 67 68 68 68 67 66 65 65 63 62 61 56 46 38 35 35 39 42 44 47 49 49 42 29 17 15 14 11 10 9 5 3 5 6 6 7 6 8
Wind_Direction
330 331 331 331 331 331 329 327 325 323 322 320 319 318 318 317 317 317 314 314 318 316 314 314 312 316 316 312 313 315 315 316 317 315 316 317 315 314 313 313 313 313 313 313 315 316 316 316 315 314 314 314 313 312 311 310 309 308 306 304 303 302 300 298 297 296 297 298 300 301 301 302 302 303 302 299 296 292 287 281 275 269 259 248 240 238
329 329 330 330 330 330 329 327 325 322 320 318 317 318 317 316 316 316 315 315 316 315 315 314 312 316 314 311 313 314 314 316 315 314 315 316 314 313 312 313 313 313 313 314 315 316 316 315 315 315 314 313 312 312 310 310 309 307 306 305 304 303 301 299 299 300 302 303 304 304 305 305 305 304 302 300 297 293 287 279 272 264 253 241 233 232
328 328 329 329 329 329 328 327 325 323 321 318 317 317 316 315 314 315 315 315 314 313 314 312 312 315 313 312 313 313 314 315 313 314 315 315 314 313 312 312 313 312 313 314 316 316 316 316 315 314 314 313 312 312 311 310 309 308 308 307 306 304 302 302 302 304 305 307 307 308 308 309 307 305 303 300 296 292 287 279 271 261 249 238 230 227
327 327 328 328 328 328 327 325 323 322 321 319 318 317 316 314 314 314 314 313 313 313 313 312 313 315 313 312 313 313 315 314 313 315 315 314 313 311 311 312 312 312 313 315 316 316 316 315 314 314 313 312 312 311 311 309 309 309 309 308 306 305 305 305 306 307 308 310 310 311 311 310 308 305 303 299 294 290 287 281 273 262 246 236 230 227
325 326 326 327 327 327 326 324 321 320 319 319 318 318 317 315 315 314 313 312 312 312 312 311 313 314 313 312 312 314 315 314 314 315 314 313 312 310 311 312 312 312 314 315 315 315 315 314 314 314 313 312 312 312 311 310 309 310 309 307 305 305 306 307 308 310 310 311 312 313 312 310 308 305 300 296 293 290 288 283 277 265 246 234 231 230
322 323 324 325 326 327 326 325 322 319 318 317 317 317 316 316 316 316 315 313 313 313 311 311 314 314 312 312 314 315 314 314 314 314 312 312 310 309 311 312 312 312 313 314 314 314 314 314 314 314 313 312 312 312 311 311 311 311 309 307 306 307 308 309 310 311 312 313 315 314 312 310 308 303 296 292 292 293 292 285 279 269 247 231 229 231
320 320 322 323 324 324 324 324 322 319 317 316 316 316 315 316 316 317 316 314 313 313 311 313 314 311 312 314 314 313 313 314 314 313 312 310 309 310 312 312 311 312 313 314 314 315 314 314 314 314 313 312 312 312 312 312 312 311 309 308 308 310 311 312 312 313 315 316 317 315 312 310 307 300 292 290 291 294 297 291 281 272 250 231 225 228
318 320 321 321 323 323 323 323 322 319 317 316 316 315 315 315 315 316 315 313 313 312 312 315 312 309 312 314 312 313 313 313 313 312 311 310 310 311 312 311 311 313 314 314 315 315 314 314 314 313 313 312 312 312 312 312 312 311 309 309 311 312 313 314 315 316 318 318 317 315 313 309 304 296 289 288 290 293 297 297 286 274 256 234 224 222
318 319 320 321 323 322 323 324 322 320 317 316 316 315 315 315 315 316 314 313 313 312 314 316 309 308 312 312 312 313 313 313 313 312 311 311 311 311 312 312 312 313 314 315 315 315 314 314 314 313 312 313 313 313 313 312 311 310 309 310 311 313 314 315 317 318 320 319 317 316 313 308 300 293 287 286 288 291 293 296 290 278 262 240 226 219
316 318 319 321 322 321 323 324 323 321 318 316 316 315 315 314 314 314 313 315 313 312 316 314 308 309 311 311 313 313 312 314 315 313 312 312 311 312 313 313 313 314 315 315 314 314 314 314 313 313 313 313 314 313 313 312 311 310 310 311 312 313 315 317 319 321 321 319 316 316 313 306 297 291 287 284 286 289 291 293 291 281 267 246 228 219
314 315 317 319 320 320 321 322 323 322 319 318 317 316 316 314 313 312 312 314 313 313 316 313 310 310 310 313 315 313 314 317 315 314 312 312 313 313 313 314 314 315 315 314 314 314 314 314 313 313 314 314 314 314 313 312 312 311 312 313 314 315 317 320 321 321 321 318 315 315 312 304 296 291 286 283 283 286 289 291 290 282 271 252 232 221
312 313 316 317 318 318 319 320 322 321 320 319 318 317 315 312 311 310 311 313 313 314 316 315 314 312 313 317 317 315 318 318 316 314 312 312 314 313 313 314 314 314 313 313 313 313 313 313 313 313 314 314 314 313 313 312 312 313 314 315 315 318 320 321 322 322 320 317 315 315 311 303 296 293 288 283 283 284 286 288 288 283 272 258 239 224
311 313 315 316 316 317 319 319 319 319 319 318 317 317 314 312 312 310 312 314 314 316 317 317 317 315 316 318 316 316 319 318 315 313 313 314 314 313 314 314 313 313 313 313 313 313 312 312 312 313 313 313 314 314 313 312 312 314 315 316 318 320 322 322 323 323 319 315 316 315 311 305 298 294 289 284 282 282 282 283 284 283 274 260 245 228
309 311 314 315 315 316 318 318 317 317 317 317 317 316 313 315 315 312 313 315 315 317 318 319 318 317 318 317 314 316 318 316 314 312 313 314 312 313 314 313 313 313 313 312 312 312 312 312 313 313 313 313 314 313 313 312 313 315 316 318 320 321 322 323 324 323 317 313 315 314 310 307 301 295 293 289 283 279 279 279 281 284 277 261 248 233
308 311 313 313 314 315 316 316 315 315 315 315 316 314 313 317 316 315 315 315 316 317 318 320 319 317 318 315 313 317 318 315 312 311 311 311 311 313 313 313 313 312 311 311 311 311 312 313 313 313 313 314 314 313 313 313 315 316 317 319 321 323 323 324 325 323 317 313 313 311 309 306 301 297 297 295 287 278 277 278 278 281 280 267 252 238
307 310 311 311 312 313 314 313 313 313 314 314 313 312 315 317 317 317 317 316 316 317 318 320 318 317 317 315 315 317 317 314 311 310 310 310 312 313 312 312 311 310 310 310 310 310 312 313 313 313 314 314 313 313 313 315 316 317 318 321 323 324 325 326 326 323 317 314 312 311 311 307 301 299 297 295 290 280 275 275 275 275 276 272 258 243
307 309 310 310 311 312 313 313 313 313 314 313 311 312 314 316 318 319 317 317 316 316 318 319 318 318 316 315 317 317 315 313 310 309 309 310 312 313 311 311 310 308 309 309 309 311 312 312 313 313 314 314 314 314 314 316 317 319 321 323 324 326 327 327 327 322 316 314 312 311 314 310 303 300 295 292 291 283 272 270 272 271 271 270 263 248
306 308 308 309 310 311 312 312 313 313 313 312 310 311 314 316 318 319 316 314 313 314 317 318 317 317 315 315 317 316 313 311 308 308 309 310 312 311 310 310 308 308 308 309 310 311 312 313 313 313 314 314 314 315 316 317 319 322 324 325 325 327 329 329 326 322 318 316 313 311 313 312 307 302 295 289 288 283 272 267 268 270 269 268 264 253
305 306 307 309 310 310 311 312 313 313 312 311 309 311 314 316 318 317 313 311 312 312 314 316 317 316 315 315 315 314 312 309 307 308 309 311 311 310 309 308 307 307 308 309 310 311 312 313 313 314 315 315 314 315 318 319 322 324 325 326 327 329 330 329 325 321 318 317 315 315 314 313 309 304 295 286 282 280 272 265 265 266 268 267 263 256
305 306 307 308 309 309 310 311 312 312 312 310 309 311 313 315 316 314 312 311 311 310 309 312 315 315 314 314 314 313 311 308 307 308 309 311 310 309 308 306 306 307 308 309 310 312 313 313 314 315 315 315 315 317 319 321 323 324 325 326 328 329 330 329 325 320 318 318 319 319 319 317 313 305 295 284 276 274 270 265 262 261 263 264 261 257
305 305 306 307 307 308 309 310 311 311 309 308 309 311 312 314 313 311 311 311 310 307 305 308 312 313 314 314 314 312 308 307 307 308 309 309 309 308 307 306 306 307 308 309 311 312 313 314 314 315 314 315 316 317 320 321 322 324 325 327 328 329 330 329 325 320 318 321 323 323 323 322 318 310 298 283 270 267 266 262 259 258 259 262 259 257
304 305 305 306 306 306 308 309 310 309 308 307 308 310 311 311 310 309 310 311 309 305 304 305 307 311 314 314 313 310 307 307 306 306 307 308 308 307 306 305 306 307 309 310 311 312 313 314 314 314 314 314 315 317 320 321 322 323 325 327 329 330 331 329 325 322 321 324 326 325 325 325 322 316 306 287 267 259 259 258 257 256 257 259 257 255
303 304 304 304 304 305 307 308 308 307 308 308 308 310 310 309 309 308 308 310 307 304 305 304 304 309 314 312 309 307 307 307 306 305 307 308 308 305 304 305 307 308 310 311 312 313 314 314 313 313 314 314 316 318 321 321 323 324 326 328 330 331 332 330 326 323 324 327 328 326 327 328 324 320 315 295 268 254 252 252 254 255 255 256 254 251
303 303 303 303 302 303 305 306 306 306 307 308 308 309 308 308 308 307 308 308 304 304 307 303 302 309 313 308 306 307 307 306 305 305 307 308 307 304 303 306 308 309 310 311 312 313 314 313 314 314 315 315 317 320 321 322 324 325 327 329 331 332 332 330 325 323 326 329 329 327 329 330 325 323 322 306 273 252 248 248 249 252 252 251 250 247
302 302 302 301 301 302 304 304 303 304 305 306 307 307 307 307 305 306 308 304 302 308 308 300 301 310 311 306 307 308 306 305 304 305 306 307 305 303 305 307 308 310 311 311 312 313 313 314 314 314 314 315 318 320 322 323 325 327 329 330 331 332 333 331 327 325 327 330 330 327 329 331 327 323 325 316 284 255 247 246 245 248 249 246 244 244
300 300 299 298 300 302 303 303 303 303 304 305 306 306 305 304 304 306 305 301 304 311 305 299 303 308 306 306 309 308 305 304 304 305 306 306 305 305 307 308 309 311 311 311 312 313 314 315 314 313 314 315 319 321 323 325 327 328 329 331 331 332 332 331 328 326 327 330 330 328 328 332 329 323 324 322 300 264 248 245 243 244 245 243 240 241
299 298 296 297 299 299 301 302 301 302 302 303 304 304 304 304 305 305 303 304 308 307 301 302 306 303 303 306 307 305 303 304 304 305 305 305 305 306 308 309 310 312 312 312 313 314 314 314 313 313 314 316 320 322 325 327 328 329 330 331 331 331 332 331 328 325 327 329 330 329 329 332 330 323 322 323 313 283 255 246 243 241 242 241 238 239
297 295 295 296 297 297 298 299 300 301 301 302 302 302 302 303 305 305 305 307 307 299 299 306 303 299 304 307 304 303 303 303 304 305 304 304 306 308 309 310 311 312 312 313 314 314 314 314 313 314 315 317 320 323 326 328 329 329 330 330 331 331 332 332 329 327 328 329 330 331 330 331 330 324 319 319 317 301 270 251 243 239 239 238 236 237
295 295 295 296 296 296 296 298 300 300 300 301 301 300 302 304 306 306 305 305 300 296 301 305 299 300 308 307 303 303 303 303 304 303 304 305 307 308 309 311 313 313 313 314 314 314 314 314 314 315 316 318 321 324 327 328 329 330 330 330 331 331 332 332 330 327 328 330 331 332 330 329 329 324 318 316 314 308 287 261 246 238 236 237 235 235
294 294 295 295 295 295 295 297 299 299 300 301 300 300 303 307 307 305 302 301 298 298 302 302 299 305 310 305 302 303 302 303 303 303 305 307 307 308 310 312 313 314 314 315 314 314 314 314 315 315 317 320 323 325 327 328 329 330 330 331 331 332 332 332 331 329 329 331 332 332 330 329 329 325 319 315 312 308 297 273 253 242 236 234 235 234
293 293 294 294 294 294 295 297 298 299 300 299 299 302 307 308 305 302 301 302 300 299 301 300 301 308 307 301 301 303 302 301 302 304 306 307 307 309 311 313 314 314 315 314 314 314 314 314 315 316 318 321 324 325 327 329 330 330 330 331 331 332 332 332 331 331 331 332 333 333 330 328 329 327 320 316 312 307 300 283 260 246 238 233 232 233
293 292 293 293 293 293 295 296 298 299 298 298 302 308 308 304 303 302 303 302 299 299 299 300 304 307 303 301 303 302 300 301 303 305 306 306 308 310 312 313 313 314 314 314 314 314 314 314 315 317 320 322 324 326 327 329 330 331 331 331 332 332 332 332 332 331 331 332 334 334 330 328 330 328 323 317 312 307 302 289 266 249 241 234 231 231
291 291 292 293 292 293 294 297 299 298 297 301 306 308 304 303 304 303 301 300 298 298 299 302 305 304 302 302 302 300 300 302 304 305 305 306 309 312 313 313 313 314 314 314 314 313 313 315 316 319 322 323 325 326 328 330 331 332 332 332 332 332 332 332 332 332 332 332 334 333 328 327 330 330 325 319 313 308 304 296 272 250 241 236 230 229
290 291 292 292 292 292 294 298 298 297 299 304 307 306 304 304 302 299 299 300 299 298 300 303 305 304 303 302 300 299 301 303 304 304 304 306 310 311 312 313 313 314 314 314 314 313 315 317 318 321 323 324 325 327 328 330 332 332 332 332 332 332 332 331 330 331 331 332 333 332 328 326 330 331 328 322 314 309 307 302 281 253 240 236 231 228
290 292 293 292 291 292 295 298 297 298 302 305 305 305 304 302 298 297 299 301 300 298 300 303 305 303 301 299 299 301 303 303 302 303 304 306 310 311 312 313 313 313 313 313 314 314 316 318 320 322 323 324 325 327 329 331 331 332 332 331 332 332 331 330 329 330 332 332 333 333 328 325 329 331 330 324 315 310 310 308 291 259 240 236 231 227
290 291 292 291 291 293 295 296 297 299 303 305 305 306 304 300 298 297 300 303 301 299 302 304 303 300 298 299 301 302 302 301 301 302 304 307 310 311 312 313 312 313 313 314 315 316 318 319 321 322 323 324 326 327 329 331 331 331 332 332 332 332 331 329 328 329 331 332 333 332 328 325 329 331 331 326 317 311 311 313 302 268 244 236 231 226
290 290 291 291 291 292 295 297 298 299 302 304 306 306 303 300 299 297 301 307 305 302 303 302 299 299 300 302 301 300 299 300 301 302 304 307 310 311 312 312 312 313 314 314 316 318 319 321 321 322 324 325 326 328 329 331 331 331 332 332 332 332 331 329 327 328 331 332 334 333 328 326 329 332 332 328 318 311 311 315 311 283 253 239 230 225
290 291 291 290 291 293 296 297 298 300 303 305 306 306 304 301 299 297 302 310 308 302 300 299 300 303 303 301 299 299 299 300 300 302 305 308 310 311 312 313 313 313 314 315 316 318 319 321 322 323 324 325 327 328 330 331 331 331 332 332 332 332 330 328 326 328 331 334 334 332 328 326 330 332 332 330 321 312 309 313 316 301 267 244 230 223
290 290 289 290 292 295 296 296 298 300 303 307 310 309 304 300 299 299 303 309 307 300 300 302 303 303 301 297 297 298 298 298 299 302 305 308 310 311 312 312 312 313 314 315 316 318 319 321 322 323 324 325 327 328 329 330 331 331 331 332 332 332 330 327 326 328 331 334 335 332 328 327 331 332 333 332 324 313 310 310 313 312 287 251 230 223
289 289 290 291 294 295 295 296 298 300 306 311 312 307 302 301 302 303 304 306 305 303 303 303 301 299 296 295 296 297 297 297 298 301 304 307 309 310 311 312 312 313 314 315 317 318 320 321 322 323 324 325 327 328 329 330 330 330 331 332 332 332 330 327 327 328 331 335 335 332 328 328 331 332 333 334 328 318 312 309 307 310 303 268 235 224
290 290 291 293 294 294 296 297 298 303 310 313 309 305 305 305 304 303 303 304 305 306 305 301 298 295 293 293 295 296 295 296 297 300 304 307 309 310 311 312 312 313 313 315 317 318 320 322 323 324 324 325 326 327 328 330 330 330 331 332 332 332 329 327 328 329 331 334 336 333 328 328 332 332 333 334 332 324 317 310 302 299 297 286 253 229
291 290 291 293 293 294 297 299 301 306 311 309 306 307 307 303 301 302 302 304 306 305 302 298 294 292 291 292 294 293 293 294 296 299 304 307 309 310 311 311 312 312 313 314 316 318 320 322 323 323 324 324 325 326 328 329 330 330 330 332 332 332 329 328 329 330 331 334 336 334 329 328 331 331 332 333 332 327 320 311 300 289 279 273 260 239
288 289 291 291 292 295 298 300 302 307 310 308 307 306 303 301 301 302 302 304 305 303 298 294 291 289 289 290 290 291 292 294 296 299 304 306 308 309 310 311 311 311 312 314 316 318 320 321 323 323 323 323 324 325 327 329 330 330 330 332 332 332 330 329 330 330 331 334 336 334 330 327 329 330 330 331 331 328 322 312 299 283 267 256 247 238
287 289 289 288 290 295 299 301 304 309 310 308 305 301 300 302 303 301 301 304 304 301 296 292 290 289 288 288 289 291 293 294 296 300 303 305 307 309 310 310 310 311 313 315 317 318 320 322 323 323 323 323 324 325 327 329 330 330 330 331 332 331 330 329 330 331 331 333 336 335 331 326 327 329 330 330 330 329 326 318 305 285 264 248 239 233
287 287 285 286 290 295 300 303 307 309 308 305 301 299 300 303 303 301 302 302 301 298 294 291 289 287 287 288 290 292 294 295 298 301 303 305 307 308 309 309 310 312 314 316 318 319 321 322 322 323 323 323 324 326 327 328 329 330 331 331 332 331 330 329 331 332 333 334 337 337 332 324 325 330 330 328 328 330 329 324 317 301 270 246 235 228
286 286 283 285 290 296 301 305 307 307 305 301 299 299 301 302 302 302 301 300 298 295 292 289 288 287 288 290 291 294 296 298 300 302 304 306 307 308 309 310 311 313 315 317 319 320 321 322 322 323 323 324 325 326 327 328 329 330 331 331 331 331 331 331 332 333 334 334 337 339 333 323 323 330 331 327 327 329 328 320 315 315 288 246 226 215
288 285 282 285 291 297 302 305 305 304 301 299 299 301 301 301 301 300 299 297 295 293 290 288 287 288 290 292 294 297 298 299 301 304 305 306 308 309 309 310 312 315 317 318 319 320 320 321 322 323 323 324 325 326 327 328 329 330 331 331 331 331 332 333 334 335 335 335 337 339 335 323 322 331 330 325 325 326 323 309 286 268 253 232 216 204
289 286 284 287 293 298 302 305 303 300 298 299 301 301 300 299 299 299 297 295 293 291 289 288 288 290 292 294 296 298 299 301 303 305 306 307 308 309 310 312 314 316 318 319 319 319 320 321 322 323 323 324 325 326 327 328 328 329 331 331 330 329 331 334 335 336 337 335 337 340 338 326 324 333 330 323 321 317 312 307 287 261 242 227 216 213
287 287 288 292 296 299 302 302 299 296 298 301 302 299 297 298 298 297 294 292 291 289 288 288 290 291 293 295 297 299 300 303 305 306 307 308 309 310 312 314 316 317 318 319 319 319 320 322 323 323 324 325 326 326 327 327 328 329 331 331 330 328 330 334 336 338 338 337 337 341 342 332 326 335 332 322 317 308 296 303 299 279 265 247 224 215
288 289 292 295 297 299 301 300 296 297 300 302 299 297 297 297 296 294 292 290 289 288 288 289 290 292 294 296 298 300 302 305 306 307 308 309 310 312 313 315 317 318 318 318 319 320 321 322 323 323 324 325 326 326 326 327 328 330 331 331 330 328 328 333 337 338 340 340 339 342 344 338 331 336 335 324 314 302 283 286 294 282 282 276 241 218
292 293 295 298 299 299 300 298 296 297 300 300 298 298 297 295 293 291 289 288 288 288 288 290 291 294 296 298 300 302 304 306 307 308 309 310 311 313 315 316 317 317 317 318 319 320 321 322 323 323 324 325 326 326 326 327 328 330 331 331 330 328 327 332 337 339 342 344 342 342 345 345 339 336 336 325 307 293 273 273 290 281 279 282 261 224
Height
5818 5815 5813 5810 5808 5805 5803 5801 5799 5797 5794 5792 5790 5788 5786 5784 5782 5780 5776 5773 5773 5770 5768 5765 5762 5762 5759 5751 5748 5748 5744 5742 5740 5736 5734 5732 5729 5726 5722 5719 5716 5712 5708 5705 5702 5700 5697 5693 5688 5683 5679 5675 5670 5665 5661 5656 5651 5646 5641 5637 5633 5628 5623 5617 5612 5609 5606 5602 5598 5594 5590 5585 5579 5574 5568 5558 5549 5543 5536 5530 5527 5528 5531 5537 5544 5550
5815 5812 5811 5808 5805 5803 5800 5798 5796 5793 5791 5788 5786 5785 5782 5779 5777 5775 5771 5768 5767 5764 5762 5759 5756 5757 5755 5747 5744 5742 5739 5737 5734 5731 5729 5727 5724 5720 5716 5712 5709 5704 5700 5697 5694 5692 5689 5684 5679 5675 5670 5665 5661 5657 5652 5647 5642 5636 5631 5626 5621 5617 5612 5606 5600 5595 5592 5588 5583 5578 5573 5568 5561 5553 5546 5537 5527 5523 5519 5514 5512 5513 5516 5522 5528 5534
5812 5809 5807 5805 5803 5800 5798 5795 5793 5790 5788 5785 5783 5781 5778 5775 5772 5771 5767 5763 5761 5759 5756 5753 5750 5750 5748 5742 5739 5736 5734 5731 5727 5725 5723 5721 5717 5713 5709 5705 5701 5696 5692 5689 5686 5684 5680 5675 5671 5667 5662 5656 5651 5647 5643 5637 5632 5626 5620 5615 5609 5605 5599 5594 5588 5583 5577 5573 5567 5560 5554 5548 5541 5533 5526 5520 5512 5507 5504 5501 5499 5500 5503 5508 5514 5520
5809 5806 5803 5802 5800 5797 5795 5792 5789 5787 5785 5782 5779 5777 5774 5771 5768 5766 5763 5759 5756 5753 5750 5746 5745 5744 5740 5737 5734 5731 5730 5726 5722 5720 5717 5714 5710 5706 5701 5698 5694 5688 5684 5682 5679 5676 5672 5667 5663 5658 5654 5649 5643 5639 5634 5629 5623 5617 5611 5605 5598 5592 5587 5580 5575 5569 5564 5559 5552 5545 5539 5531 5522 5516 5509 5505 5501 5495 5491 5489 5487 5488 5491 5496 5501 5507
5805 5802 5800 5799 5797 5795 5793 5790 5786 5783 5780 5778 5776 5773 5770 5767 5764 5761 5758 5755 5752 5749 5745 5740 5739 5738 5734 5731 5728 5726 5723 5719 5715 5713 5710 5707 5703 5698 5695 5691 5686 5681 5678 5676 5673 5669 5665 5660 5655 5649 5644 5640 5635 5630 5625 5620 5615 5610 5604 5598 5591 5584 5577 5569 5562 5556 5550 5546 5540 5531 5524 5518 5509 5502 5498 5494 5491 5486 5481 5478 5477 5477 5480 5484 5490 5496
5801 5799 5796 5795 5793 5791 5789 5786 5783 5779 5776 5773 5771 5769 5765 5762 5759 5756 5753 5749 5746 5745 5741 5735 5733 5730 5727 5724 5722 5720 5717 5713 5710 5707 5704 5701 5696 5691 5688 5684 5679 5674 5672 5669 5665 5661 5657 5652 5647 5641 5635 5631 5626 5621 5614 5610 5605 5600 5595 5589 5582 5574 5567 5559 5552 5545 5538 5533 5528 5518 5507 5502 5496 5492 5489 5485 5481 5478 5474 5470 5468 5468 5470 5474 5479 5487
5798 5796 5793 5790 5789 5787 5784 5782 5779 5775 5772 5768 5766 5764 5760 5757 5754 5751 5748 5743 5740 5739 5735 5732 5727 5721 5720 5719 5715 5713 5710 5707 5704 5701 5698 5695 5690 5685 5682 5677 5672 5668 5665 5661 5657 5652 5647 5643 5639 5634 5629 5623 5619 5614 5607 5600 5595 5590 5584 5578 5571 5563 5556 5549 5541 5534 5526 5518 5514 5506 5495 5488 5484 5481 5481 5478 5474 5471 5468 5465 5461 5460 5461 5465 5469 5477
5792 5791 5789 5786 5784 5782 5779 5776 5773 5770 5767 5763 5761 5759 5755 5752 5748 5746 5742 5737 5735 5732 5729 5729 5723 5713 5713 5714 5709 5706 5703 5700 5698 5694 5690 5686 5682 5679 5675 5670 5665 5660 5657 5653 5648 5644 5638 5633 5629 5625 5620 5615 5610 5606 5600 5594 5588 5582 5576 5570 5563 5554 5546 5539 5531 5523 5515 5505 5498 5493 5485 5478 5474 5471 5471 5471 5467 5464 5461 5459 5456 5453 5454 5457 5461 5467
5786 5785 5784 5781 5779 5776 5773 5771 5768 5765 5762 5759 5756 5753 5751 5747 5744 5741 5736 5732 5730 5725 5724 5724 5717 5708 5707 5707 5704 5700 5695 5693 5690 5686 5682 5678 5674 5671 5667 5662 5657 5653 5649 5644 5640 5636 5631 5626 5621 5616 5611 5606 5601 5596 5591 5586 5580 5574 5568 5562 5556 5547 5538 5530 5522 5513 5505 5494 5484 5479 5474 5469 5466 5463 5463 5462 5460 5458 5455 5453 5451 5448 5447 5450 5454 5458
5781 5780 5778 5776 5774 5770 5768 5766 5763 5760 5757 5754 5752 5749 5746 5742 5739 5736 5731 5728 5724 5719 5720 5718 5711 5705 5701 5700 5699 5694 5689 5687 5682 5676 5673 5670 5665 5662 5658 5653 5649 5645 5640 5636 5632 5627 5622 5617 5612 5607 5603 5598 5592 5587 5581 5576 5571 5564 5559 5553 5548 5540 5530 5521 5512 5502 5495 5484 5474 5469 5464 5460 5458 5456 5455 5454 5453 5451 5448 5446 5445 5442 5441 5442 5447 5451
5777 5775 5774 5772 5769 5766 5763 5761 5758 5755 5752 5749 5747 5744 5741 5737 5734 5730 5726 5723 5718 5714 5714 5711 5706 5700 5694 5692 5690 5684 5681 5680 5676 5670 5665 5661 5658 5654 5650 5645 5641 5637 5633 5629 5624 5619 5614 5608 5603 5597 5593 5589 5583 5577 5571 5565 5560 5554 5548 5543 5538 5531 5521 5511 5503 5493 5485 5476 5466 5460 5456 5452 5450 5449 5448 5447 5446 5444 5442 5440 5439 5437 5435 5435 5440 5445
5772 5771 5769 5767 5764 5761 5758 5756 5753 5749 5746 5744 5741 5738 5735 5731 5729 5725 5720 5717 5712 5709 5708 5703 5699 5693 5687 5685 5680 5674 5673 5669 5664 5662 5657 5654 5652 5648 5643 5639 5634 5629 5626 5621 5616 5611 5606 5601 5596 5590 5585 5580 5575 5569 5563 5556 5551 5546 5540 5533 5527 5522 5512 5502 5494 5484 5476 5469 5460 5454 5448 5445 5444 5442 5441 5440 5439 5437 5435 5434 5433 5431 5430 5429 5432 5438
5764 5763 5763 5761 5758 5755 5752 5750 5746 5743 5740 5737 5735 5732 5728 5725 5722 5717 5713 5709 5704 5702 5701 5697 5692 5686 5683 5681 5674 5670 5669 5663 5655 5651 5648 5646 5643 5640 5636 5632 5627 5622 5617 5613 5607 5602 5598 5593 5588 5583 5578 5573 5568 5561 5555 5549 5543 5538 5533 5525 5518 5512 5503 5492 5484 5475 5466 5460 5455 5449 5442 5438 5437 5436 5434 5433 5432 5431 5429 5428 5427 5426 5424 5424 5426 5430
5756 5756 5756 5754 5751 5749 5747 5744 5739 5736 5733 5729 5728 5725 5721 5718 5715 5710 5707 5702 5698 5696 5693 5691 5686 5681 5679 5676 5670 5668 5667 5660 5654 5647 5642 5640 5636 5633 5630 5625 5620 5615 5609 5604 5599 5593 5589 5585 5580 5575 5570 5565 5560 5554 5547 5541 5535 5530 5524 5517 5509 5502 5495 5485 5475 5466 5458 5452 5448 5444 5438 5432 5430 5430 5428 5426 5425 5424 5423 5421 5421 5421 5419 5418 5419 5423
5750 5749 5749 5746 5744 5742 5740 5737 5734 5731 5727 5723 5720 5716 5714 5712 5708 5703 5700 5694 5692 5691 5688 5686 5681 5677 5676 5671 5663 5664 5663 5656 5650 5645 5641 5637 5632 5627 5623 5618 5613 5607 5602 5597 5591 5586 5581 5577 5572 5566 5561 5556 5551 5546 5540 5534 5528 5521 5515 5509 5501 5492 5484 5475 5465 5457 5451 5445 5441 5437 5433 5427 5424 5422 5421 5420 5418 5416 5416 5415 5415 5415 5414 5412 5413 5415
5745 5744 5742 5739 5738 5736 5734 5732 5728 5725 5722 5718 5713 5709 5707 5705 5700 5696 5693 5687 5683 5683 5683 5682 5676 5671 5671 5667 5660 5657 5656 5650 5644 5640 5637 5631 5627 5622 5616 5612 5606 5600 5595 5590 5585 5580 5576 5570 5565 5558 5553 5547 5542 5538 5532 5527 5520 5513 5506 5500 5493 5485 5474 5463 5454 5447 5443 5438 5434 5430 5427 5422 5417 5414 5413 5412 5410 5409 5409 5408 5408 5408 5408 5407 5406 5408
5739 5738 5735 5732 5730 5729 5727 5725 5721 5718 5715 5711 5706 5703 5701 5698 5694 5689 5684 5680 5677 5673 5673 5674 5670 5665 5661 5659 5657 5652 5647 5643 5637 5633 5630 5625 5621 5616 5609 5604 5599 5593 5588 5583 5578 5573 5569 5564 5558 5552 5546 5539 5534 5530 5525 5520 5513 5505 5496 5487 5481 5476 5467 5456 5446 5440 5435 5431 5427 5423 5420 5415 5410 5406 5404 5403 5402 5401 5401 5400 5400 5401 5402 5401 5400 5401
5733 5731 5729 5726 5723 5722 5719 5717 5715 5712 5708 5704 5700 5697 5694 5691 5688 5683 5676 5673 5671 5666 5664 5664 5662 5659 5654 5650 5650 5647 5640 5635 5630 5626 5622 5619 5615 5610 5603 5597 5591 5587 5582 5576 5571 5566 5562 5557 5551 5545 5539 5533 5526 5521 5516 5510 5504 5495 5486 5477 5468 5461 5455 5446 5438 5433 5428 5423 5419 5416 5412 5407 5402 5397 5394 5392 5392 5392 5392 5392 5392 5394 5395 5395 5394 5394
5727 5723 5722 5720 5717 5714 5712 5710 5707 5704 5701 5697 5694 5691 5688 5684 5682 5679 5671 5666 5665 5660 5655 5656 5655 5651 5648 5644 5641 5640 5636 5627 5621 5618 5614 5612 5609 5603 5597 5591 5585 5581 5576 5570 5565 5559 5554 5549 5542 5537 5531 5526 5520 5514 5507 5501 5493 5486 5478 5470 5461 5452 5445 5437 5429 5425 5421 5415 5410 5407 5402 5397 5392 5387 5383 5381 5381 5382 5382 5383 5384 5386 5387 5388 5388 5387
5721 5716 5713 5712 5709 5706 5705 5703 5700 5698 5695 5690 5687 5685 5683 5679 5676 5673 5666 5660 5658 5654 5647 5647 5647 5644 5643 5642 5636 5633 5630 5621 5613 5610 5607 5604 5602 5597 5591 5585 5580 5575 5569 5564 5559 5553 5547 5541 5535 5530 5524 5519 5513 5507 5500 5492 5485 5479 5471 5464 5456 5448 5441 5432 5423 5418 5414 5409 5403 5397 5392 5387 5381 5376 5371 5369 5369 5371 5372 5374 5375 5377 5378 5380 5381 5380
5716 5710 5706 5704 5702 5699 5697 5695 5694 5692 5689 5685 5681 5677 5676 5674 5669 5665 5661 5657 5653 5646 5640 5636 5636 5635 5635 5635 5633 5628 5622 5616 5609 5604 5601 5598 5595 5591 5584 5578 5574 5569 5563 5558 5552 5546 5541 5535 5529 5524 5519 5513 5508 5502 5495 5487 5479 5473 5465 5457 5449 5440 5432 5425 5418 5412 5406 5401 5395 5389 5383 5376 5370 5364 5360 5357 5357 5359 5362 5364 5365 5367 5370 5372 5373 5373
5710 5704 5700 5698 5696 5692 5690 5689 5687 5685 5683 5679 5675 5672 5670 5668 5664 5657 5653 5655 5651 5640 5635 5630 5624 5627 5630 5626 5624 5621 5615 5610 5605 5599 5597 5594 5590 5584 5576 5571 5567 5561 5556 5551 5545 5540 5534 5529 5523 5518 5514 5509 5503 5498 5491 5483 5475 5467 5459 5450 5441 5432 5422 5415 5409 5404 5398 5392 5387 5381 5374 5368 5361 5355 5350 5347 5346 5348 5351 5354 5356 5358 5361 5364 5366 5366
5703 5698 5694 5692 5690 5686 5683 5682 5681 5678 5675 5671 5668 5666 5663 5659 5658 5651 5644 5647 5645 5635 5631 5625 5614 5619 5626 5622 5617 5613 5607 5603 5598 5592 5590 5587 5584 5578 5570 5566 5561 5555 5550 5544 5538 5534 5528 5522 5517 5511 5507 5502 5497 5492 5485 5477 5469 5459 5451 5441 5432 5424 5414 5406 5400 5395 5390 5384 5378 5372 5366 5360 5353 5346 5341 5337 5336 5338 5341 5344 5347 5349 5353 5356 5358 5359
5696 5690 5687 5683 5682 5681 5678 5675 5674 5671 5668 5664 5661 5659 5655 5650 5648 5644 5640 5637 5634 5631 5628 5616 5607 5612 5617 5614 5611 5607 5600 5595 5589 5584 5583 5580 5577 5571 5565 5561 5556 5550 5545 5539 5532 5528 5522 5516 5509 5503 5499 5494 5489 5484 5478 5470 5462 5453 5443 5433 5423 5417 5408 5399 5393 5388 5383 5377 5370 5364 5358 5352 5346 5339 5334 5330 5328 5329 5332 5335 5338 5341 5344 5347 5350 5352
5690 5685 5681 5676 5673 5673 5672 5670 5667 5664 5661 5658 5655 5652 5648 5646 5640 5636 5636 5628 5622 5629 5625 5604 5599 5610 5608 5600 5602 5600 5591 5587 5582 5576 5575 5574 5568 5563 5558 5555 5549 5544 5539 5533 5527 5522 5516 5510 5503 5496 5492 5487 5482 5476 5470 5462 5454 5445 5436 5425 5414 5407 5400 5392 5386 5380 5375 5369 5363 5356 5350 5344 5339 5333 5328 5323 5321 5322 5323 5326 5329 5332 5336 5339 5342 5345
5684 5680 5678 5673 5668 5665 5664 5663 5660 5658 5655 5651 5649 5645 5642 5640 5635 5631 5629 5619 5613 5621 5618 5599 5594 5605 5603 5592 5591 5589 5581 5578 5576 5569 5566 5565 5559 5554 5551 5547 5543 5538 5533 5527 5521 5516 5510 5504 5497 5491 5486 5481 5475 5468 5461 5453 5444 5435 5428 5419 5409 5399 5392 5386 5379 5373 5368 5362 5356 5349 5342 5337 5332 5327 5323 5318 5316 5315 5316 5318 5321 5324 5327 5331 5334 5337
5676 5673 5671 5668 5664 5662 5659 5656 5653 5651 5648 5644 5642 5639 5635 5632 5630 5626 5619 5613 5610 5607 5604 5600 5593 5592 5597 5594 5584 5579 5574 5569 5568 5564 5560 5557 5551 5547 5544 5539 5535 5530 5524 5519 5513 5508 5503 5498 5492 5486 5480 5475 5469 5461 5453 5443 5434 5426 5418 5411 5404 5395 5386 5379 5373 5367 5361 5355 5350 5343 5336 5329 5325 5321 5318 5314 5311 5310 5310 5311 5313 5316 5319 5322 5326 5330
5666 5665 5665 5660 5657 5657 5653 5648 5647 5643 5640 5638 5633 5629 5629 5626 5624 5619 5610 5607 5606 5593 5590 5600 5592 5579 5586 5590 5578 5571 5568 5563 5561 5558 5554 5550 5544 5540 5536 5531 5527 5523 5516 5510 5504 5499 5494 5490 5485 5479 5474 5468 5462 5455 5447 5438 5428 5419 5410 5402 5395 5387 5379 5372 5365 5360 5354 5348 5342 5337 5330 5323 5317 5314 5312 5309 5307 5304 5304 5304 5305 5307 5310 5313 5317 5322
5656 5656 5659 5652 5648 5650 5646 5640 5640 5636 5632 5632 5626 5619 5621 5621 5616 5612 5605 5602 5598 5585 5582 5592 5587 5577 5580 5578 5570 5564 5559 5556 5554 5550 5546 5543 5537 5533 5529 5524 5520 5515 5508 5503 5497 5491 5486 5481 5476 5472 5467 5462 5455 5448 5441 5433 5424 5414 5405 5397 5388 5379 5371 5364 5357 5352 5347 5341 5335 5329 5323 5317 5311 5307 5304 5303 5301 5299 5298 5297 5298 5300 5302 5305 5309 5313
5649 5647 5649 5644 5640 5641 5638 5633 5632 5628 5625 5625 5619 5611 5612 5614 5609 5602 5597 5595 5588 5580 5580 5580 5576 5577 5577 5566 5560 5559 5552 5548 5547 5543 5540 5535 5530 5526 5522 5517 5512 5506 5500 5495 5489 5484 5479 5473 5469 5464 5460 5454 5447 5440 5433 5426 5418 5408 5399 5390 5381 5372 5363 5356 5350 5345 5339 5333 5327 5321 5316 5311 5304 5300 5296 5295 5294 5293 5291 5290 5290 5292 5294 5297 5300 5304
5642 5639 5640 5636 5631 5632 5631 5626 5623 5621 5617 5615 5613 5608 5606 5605 5601 5594 5590 5587 5579 5574 5576 5571 5566 5572 5571 5557 5552 5552 5546 5541 5540 5538 5534 5528 5523 5519 5515 5510 5505 5499 5493 5487 5481 5476 5471 5466 5462 5458 5453 5446 5439 5432 5425 5418 5411 5401 5392 5383 5374 5365 5356 5348 5343 5338 5332 5327 5322 5315 5309 5304 5299 5293 5289 5286 5285 5284 5283 5282 5281 5282 5285 5288 5292 5295
5634 5630 5630 5626 5621 5622 5623 5618 5615 5614 5608 5605 5609 5607 5599 5594 5591 5588 5584 5579 5572 5567 5567 5564 5561 5562 5559 5551 5547 5544 5539 5535 5533 5531 5528 5522 5517 5512 5507 5503 5498 5493 5487 5481 5475 5470 5465 5460 5456 5451 5446 5439 5433 5426 5419 5411 5404 5395 5385 5376 5366 5357 5349 5341 5335 5331 5326 5321 5315 5309 5304 5298 5293 5287 5282 5278 5276 5274 5273 5272 5271 5272 5274 5279 5283 5286
5627 5623 5621 5617 5611 5610 5613 5610 5607 5605 5599 5598 5605 5602 5592 5586 5583 5580 5577 5573 5566 5560 5557 5557 5557 5554 5548 5544 5540 5536 5533 5530 5527 5523 5519 5515 5511 5506 5500 5494 5489 5485 5480 5474 5468 5463 5458 5454 5448 5443 5438 5431 5424 5418 5411 5402 5395 5385 5376 5367 5358 5350 5342 5335 5329 5324 5319 5314 5308 5303 5298 5293 5287 5281 5276 5272 5268 5266 5263 5261 5260 5260 5263 5268 5273 5277
5619 5616 5613 5609 5603 5600 5602 5601 5596 5594 5592 5593 5596 5593 5586 5581 5576 5571 5569 5567 5561 5555 5551 5551 5551 5546 5541 5537 5532 5528 5526 5524 5521 5517 5512 5508 5505 5501 5495 5488 5482 5477 5472 5467 5462 5456 5450 5446 5441 5435 5430 5423 5416 5411 5403 5395 5387 5378 5369 5360 5351 5344 5335 5328 5324 5319 5314 5308 5303 5298 5293 5287 5281 5276 5270 5265 5261 5258 5255 5251 5250 5250 5253 5258 5264 5269
5612 5609 5604 5601 5597 5591 5592 5592 5585 5583 5587 5587 5585 5585 5580 5574 5568 5564 5563 5562 5555 5549 5547 5546 5544 5540 5534 5529 5524 5522 5520 5517 5513 5510 5505 5501 5498 5494 5489 5483 5477 5471 5465 5461 5456 5450 5444 5438 5433 5429 5424 5418 5411 5404 5398 5390 5382 5374 5365 5355 5346 5338 5330 5322 5318 5314 5308 5302 5297 5291 5286 5281 5276 5270 5265 5260 5255 5252 5248 5244 5242 5242 5244 5248 5254 5260
5605 5602 5596 5593 5589 5584 5582 5582 5576 5575 5582 5581 5577 5575 5572 5566 5560 5556 5557 5558 5551 5542 5541 5541 5537 5532 5527 5522 5519 5516 5513 5510 5506 5502 5499 5495 5491 5486 5481 5476 5471 5466 5460 5454 5448 5443 5437 5431 5425 5421 5417 5412 5405 5398 5392 5384 5376 5368 5360 5351 5341 5332 5324 5317 5312 5309 5304 5297 5291 5286 5280 5275 5270 5265 5260 5255 5250 5246 5243 5240 5237 5236 5237 5241 5246 5252
5596 5594 5590 5584 5581 5576 5573 5571 5567 5567 5573 5577 5572 5567 5563 5558 5554 5549 5549 5553 5547 5538 5535 5533 5529 5526 5521 5517 5514 5509 5505 5503 5499 5495 5493 5489 5485 5480 5474 5469 5464 5459 5453 5447 5441 5435 5429 5424 5418 5412 5409 5405 5398 5391 5385 5378 5369 5361 5354 5345 5336 5326 5319 5312 5307 5303 5299 5292 5286 5280 5275 5269 5265 5260 5256 5250 5246 5242 5239 5236 5234 5232 5233 5236 5240 5245
5588 5585 5583 5576 5572 5570 5565 5562 5560 5558 5562 5568 5566 5562 5556 5551 5548 5543 5542 5546 5544 5535 5529 5525 5521 5520 5516 5511 5506 5503 5499 5496 5491 5487 5485 5483 5478 5473 5468 5462 5456 5451 5446 5441 5437 5431 5424 5419 5413 5407 5402 5398 5392 5385 5378 5371 5363 5355 5347 5340 5331 5322 5315 5308 5302 5298 5294 5288 5281 5275 5270 5265 5259 5255 5251 5247 5242 5238 5235 5233 5231 5229 5230 5232 5235 5240
5580 5577 5574 5569 5565 5563 5557 5554 5554 5552 5553 5557 5557 5554 5550 5545 5541 5537 5535 5539 5538 5530 5523 5519 5516 5514 5510 5504 5501 5497 5493 5491 5486 5480 5477 5476 5472 5467 5462 5457 5451 5446 5441 5435 5431 5426 5420 5413 5408 5402 5397 5392 5386 5380 5373 5366 5357 5349 5342 5335 5327 5318 5311 5304 5299 5294 5289 5284 5277 5271 5266 5260 5255 5251 5247 5243 5238 5235 5232 5230 5228 5227 5227 5229 5232 5237
5572 5568 5566 5562 5559 5556 5550 5547 5547 5547 5547 5548 5548 5545 5542 5538 5536 5532 5528 5529 5529 5523 5519 5516 5512 5508 5504 5498 5496 5493 5488 5485 5481 5475 5471 5469 5466 5461 5457 5453 5447 5442 5437 5431 5426 5421 5415 5408 5401 5395 5390 5386 5381 5375 5368 5362 5354 5345 5337 5330 5323 5315 5307 5301 5295 5290 5284 5280 5274 5267 5261 5256 5252 5247 5244 5240 5236 5232 5230 5228 5226 5225 5226 5227 5230 5234
5564 5560 5558 5555 5551 5548 5544 5539 5540 5543 5542 5539 5537 5536 5533 5530 5529 5527 5523 5520 5518 5515 5513 5510 5505 5501 5497 5492 5490 5487 5482 5479 5476 5472 5467 5463 5460 5455 5451 5447 5442 5437 5432 5427 5422 5417 5411 5404 5397 5389 5382 5378 5373 5368 5363 5357 5349 5341 5333 5326 5319 5311 5303 5297 5291 5286 5280 5275 5270 5263 5257 5252 5248 5244 5240 5237 5233 5230 5228 5226 5225 5224 5224 5226 5228 5231
5557 5552 5549 5549 5545 5541 5537 5532 5531 5536 5538 5531 5527 5527 5526 5522 5519 5519 5517 5514 5511 5508 5506 5503 5499 5494 5490 5487 5484 5481 5477 5474 5471 5467 5463 5459 5454 5450 5445 5441 5436 5431 5427 5422 5417 5413 5408 5402 5395 5387 5379 5373 5368 5362 5358 5352 5344 5336 5328 5321 5314 5307 5300 5294 5288 5282 5276 5271 5266 5260 5254 5250 5245 5241 5238 5235 5232 5228 5226 5224 5223 5223 5224 5225 5227 5230
5550 5545 5542 5542 5538 5533 5531 5527 5525 5527 5528 5524 5520 5519 5518 5515 5512 5510 5508 5506 5504 5501 5498 5495 5492 5488 5484 5481 5478 5475 5472 5469 5466 5463 5459 5454 5450 5445 5439 5436 5432 5427 5423 5418 5413 5408 5404 5398 5392 5385 5376 5370 5364 5358 5353 5347 5340 5332 5324 5317 5310 5304 5297 5291 5285 5279 5273 5268 5263 5257 5251 5247 5243 5239 5236 5233 5230 5227 5225 5223 5222 5222 5223 5224 5226 5228
5543 5540 5535 5534 5532 5526 5523 5522 5520 5519 5518 5516 5513 5511 5509 5508 5505 5502 5499 5497 5495 5493 5490 5487 5484 5481 5478 5475 5471 5469 5467 5464 5461 5458 5454 5450 5445 5440 5435 5431 5427 5422 5417 5413 5408 5404 5399 5394 5388 5381 5372 5364 5358 5351 5345 5341 5335 5328 5320 5312 5306 5300 5295 5289 5283 5277 5270 5264 5259 5254 5248 5244 5241 5237 5234 5231 5229 5226 5224 5222 5220 5220 5220 5222 5223 5225
5535 5533 5528 5526 5524 5521 5518 5515 5514 5513 5510 5507 5506 5504 5501 5500 5498 5495 5492 5489 5487 5484 5481 5478 5476 5473 5471 5468 5465 5463 5461 5458 5455 5452 5449 5444 5440 5435 5431 5426 5422 5417 5413 5408 5403 5398 5393 5388 5383 5377 5369 5361 5353 5345 5339 5333 5329 5323 5316 5308 5302 5296 5292 5286 5280 5274 5267 5261 5256 5251 5246 5242 5239 5235 5233 5230 5228 5226 5224 5222 5221 5219 5219 5219 5220 5221
5526 5524 5520 5519 5516 5513 5512 5511 5508 5505 5503 5500 5497 5496 5494 5492 5490 5487 5484 5481 5479 5477 5473 5470 5468 5466 5463 5461 5459 5456 5454 5452 5449 5445 5442 5438 5434 5430 5426 5421 5416 5412 5407 5402 5398 5393 5388 5382 5376 5371 5364 5357 5348 5341 5333 5327 5322 5316 5310 5304 5298 5293 5288 5283 5277 5271 5265 5259 5254 5249 5244 5240 5237 5234 5231 5230 5228 5226 5225 5223 5222 5221 5220 5220 5220 5220
5519 5514 5512 5512 5509 5505 5505 5504 5501 5497 5495 5493 5490 5487 5485 5484 5482 5479 5476 5472 5471 5468 5465 5462 5460 5458 5456 5454 5451 5449 5447 5445 5442 5438 5435 5431 5427 5424 5420 5415 5411 5407 5402 5397 5392 5387 5382 5377 5371 5365 5359 5352 5344 5337 5329 5322 5316 5311 5305 5299 5294 5289 5285 5280 5274 5269 5263 5257 5252 5247 5242 5238 5235 5232 5230 5229 5228 5226 5225 5224 5223 5223 5223 5222 5222 5223
5510 5506 5504 5504 5502 5499 5497 5496 5493 5488 5485 5485 5483 5481 5478 5476 5473 5471 5468 5465 5462 5459 5456 5455 5453 5451 5450 5447 5445 5443 5440 5438 5435 5432 5428 5425 5421 5417 5414 5410 5405 5401 5396 5391 5386 5381 5376 5371 5365 5359 5353 5346 5339 5332 5325 5318 5312 5306 5301 5296 5290 5287 5283 5278 5273 5268 5261 5255 5249 5245 5240 5236 5234 5231 5229 5228 5228 5227 5226 5225 5225 5224 5224 5224 5225 5226
5501 5498 5498 5496 5493 5492 5492 5488 5483 5480 5478 5476 5474 5473 5472 5469 5465 5462 5460 5458 5455 5451 5449 5448 5446 5445 5443 5441 5439 5436 5434 5431 5428 5425 5421 5418 5415 5411 5408 5404 5400 5395 5391 5386 5381 5375 5370 5365 5359 5353 5347 5340 5334 5327 5320 5314 5308 5302 5297 5292 5287 5283 5281 5277 5272 5267 5261 5254 5248 5243 5239 5234 5232 5230 5228 5227 5227 5226 5225 5225 5226 5225 5225 5226 5227 5227
5493 5490 5490 5488 5484 5483 5485 5480 5472 5470 5471 5469 5465 5463 5462 5461 5458 5455 5452 5449 5446 5444 5443 5441 5440 5438 5437 5435 5432 5430 5427 5424 5421 5418 5415 5412 5409 5405 5402 5398 5394 5390 5386 5381 5375 5369 5364 5359 5353 5348 5341 5335 5328 5322 5315 5310 5304 5298 5292 5288 5284 5280 5277 5274 5270 5265 5260 5253 5246 5241 5238 5233 5230 5228 5227 5226 5226 5225 5225 5225 5226 5226 5226 5227 5227 5228
5484 5481 5480 5479 5475 5473 5476 5472 5464 5462 5464 5463 5459 5455 5453 5452 5450 5447 5444 5441 5439 5437 5436 5435 5433 5432 5430 5427 5425 5423 5420 5418 5415 5412 5409 5406 5403 5399 5396 5392 5388 5384 5380 5376 5370 5365 5359 5353 5348 5342 5336 5330 5324 5317 5311 5305 5300 5295 5289 5284 5280 5276 5273 5271 5268 5264 5259 5252 5244 5240 5236 5232 5228 5227 5226 5225 5225 5225 5225 5225 5226 5226 5227 5227 5228 5229